TimeEST,TemperatureF,Dew PointF,Humidity,Sea Level PressureIn,VisibilityMPH,Wind Direction,Wind SpeedMPH,Gust SpeedMPH,PrecipitationIn,Events,Conditions,WindDirDegrees,DateUTC
12:06 AM,35.6,26.6,70,30.43,10.0,North,3.5,-,N/A,,Clear,350,2012-12-13 05:06:00
12:27 AM,35.6,26.6,70,30.41,10.0,North,3.5,-,N/A,,Clear,360,2012-12-13 05:27:00
12:48 AM,35.6,26.6,70,30.40,10.0,North,4.6,-,N/A,,Clear,360,2012-12-13 05:48:00
1:09 AM,35.6,26.6,70,30.41,10.0,North,3.5,-,N/A,,Clear,360,2012-12-13 06:09:00
1:30 AM,35.6,26.6,70,30.42,10.0,North,4.6,-,N/A,,Clear,360,2012-12-13 06:30:00
1:51 AM,35.6,26.6,70,30.43,10.0,Calm,Calm,-,N/A,,Clear,0,2012-12-13 06:51:00
2:12 AM,32.0,28.4,87,30.43,10.0,Calm,Calm,-,N/A,,Clear,0,2012-12-13 07:12:00
2:54 AM,32.0,28.4,87,30.45,10.0,Calm,Calm,-,N/A,,Clear,0,2012-12-13 07:54:00
3:15 AM,32.0,30.2,93,30.44,10.0,Calm,Calm,-,N/A,,Clear,0,2012-12-13 08:15:00
3:39 AM,32.0,30.2,93,30.44,10.0,Calm,Calm,-,N/A,,Clear,0,2012-12-13 08:39:00
4:00 AM,32.0,28.4,87,30.42,10.0,Calm,Calm,-,N/A,,Clear,0,2012-12-13 09:00:00
4:21 AM,32.0,28.4,87,30.43,10.0,North,3.5,-,N/A,,Clear,360,2012-12-13 09:21:00
4:42 AM,32.0,28.4,87,30.44,10.0,Calm,Calm,-,N/A,,Clear,0,2012-12-13 09:42:00
5:03 AM,32.0,28.4,87,30.44,10.0,Calm,Calm,-,N/A,,Clear,0,2012-12-13 10:03:00
5:24 AM,32.0,28.4,87,30.45,10.0,Calm,Calm,-,N/A,,Clear,0,2012-12-13 10:24:00
5:45 AM,32.0,28.4,87,30.45,10.0,Calm,Calm,-,N/A,,Clear,0,2012-12-13 10:45:00
6:06 AM,30.2,28.4,93,30.46,10.0,Calm,Calm,-,N/A,,Clear,0,2012-12-13 11:06:00
6:27 AM,30.2,26.6,86,30.45,10.0,Calm,Calm,-,N/A,,Clear,0,2012-12-13 11:27:00
6:48 AM,30.2,26.6,86,30.45,10.0,Calm,Calm,-,N/A,,Clear,0,2012-12-13 11:48:00
7:09 AM,30.2,26.6,86,30.45,10.0,Calm,Calm,-,N/A,,Clear,0,2012-12-13 12:09:00
7:33 AM,28.4,26.6,93,30.45,10.0,Calm,Calm,-,N/A,,Clear,0,2012-12-13 12:33:00
8:15 AM,28.4,26.6,93,30.46,10.0,Calm,Calm,-,N/A,,Clear,0,2012-12-13 13:15:00
8:36 AM,32.0,28.4,87,30.46,10.0,NNE,3.5,-,N/A,,Clear,20,2012-12-13 13:36:00
8:57 AM,37.4,26.6,65,30.47,10.0,NNE,4.6,-,N/A,,Clear,20,2012-12-13 13:57:00
9:18 AM,39.2,26.6,61,30.47,10.0,NE,5.8,-,N/A,,Clear,40,2012-12-13 14:18:00
9:39 AM,41.0,26.6,57,30.48,10.0,ENE,3.5,-,N/A,,Clear,60,2012-12-13 14:39:00
10:00 AM,42.8,26.6,53,30.48,10.0,NE,5.8,-,N/A,,Clear,40,2012-12-13 15:00:00
10:21 AM,42.8,26.6,53,30.48,10.0,ENE,8.1,-,N/A,,Clear,60,2012-12-13 15:21:00
10:42 AM,44.6,23.0,43,30.48,10.0,East,9.2,-,N/A,,Clear,90,2012-12-13 15:42:00
11:03 AM,44.6,23.0,43,30.48,10.0,NE,6.9,-,N/A,,Clear,50,2012-12-13 16:03:00
11:24 AM,44.6,23.0,43,30.47,10.0,NE,9.2,-,N/A,,Clear,50,2012-12-13 16:24:00
11:45 AM,46.4,21.2,37,30.46,10.0,NE,4.6,-,N/A,,Clear,50,2012-12-13 16:45:00
12:09 PM,44.6,21.2,39,30.45,10.0,East,11.5,-,N/A,,Clear,80,2012-12-13 17:09:00
1:12 PM,44.6,21.2,39,30.43,10.0,NE,4.6,-,N/A,,Clear,50,2012-12-13 18:12:00
1:33 PM,44.6,21.2,39,30.43,10.0,ENE,6.9,-,N/A,,Clear,70,2012-12-13 18:33:00
1:54 PM,46.4,21.2,37,30.43,10.0,NNE,5.8,-,N/A,,Clear,30,2012-12-13 18:54:00
2:15 PM,46.4,21.2,37,30.43,10.0,Calm,Calm,-,N/A,,Clear,0,2012-12-13 19:15:00
2:36 PM,44.6,21.2,39,30.42,10.0,Calm,Calm,-,N/A,,Clear,0,2012-12-13 19:36:00
2:57 PM,44.6,21.2,39,30.41,10.0,East,4.6,-,N/A,,Clear,90,2012-12-13 19:57:00
3:18 PM,44.6,21.2,39,30.41,10.0,East,3.5,-,N/A,,Clear,80,2012-12-13 20:18:00
3:39 PM,44.6,21.2,39,30.41,10.0,ESE,3.5,-,N/A,,Clear,120,2012-12-13 20:39:00
4:00 PM,42.8,23.0,46,30.41,10.0,East,3.5,-,N/A,,Clear,80,2012-12-13 21:00:00
4:21 PM,42.8,23.0,46,30.41,10.0,Calm,Calm,-,N/A,,Clear,0,2012-12-13 21:21:00
4:42 PM,41.0,23.0,49,30.40,10.0,ESE,3.5,-,N/A,,Clear,110,2012-12-13 21:42:00
5:06 PM,37.4,23.0,56,30.40,10.0,Calm,Calm,-,N/A,,Clear,0,2012-12-13 22:06:00
5:27 PM,33.8,24.8,70,30.40,10.0,Calm,Calm,-,N/A,,Clear,0,2012-12-13 22:27:00
6:09 PM,32.0,26.6,80,30.41,10.0,Calm,Calm,-,N/A,,Clear,0,2012-12-13 23:09:00
7:12 PM,30.2,24.8,80,30.41,10.0,Calm,Calm,-,N/A,,Clear,0,2012-12-14 00:12:00
7:33 PM,30.2,24.8,80,30.41,10.0,Calm,Calm,-,N/A,,Clear,0,2012-12-14 00:33:00
7:54 PM,30.2,23.0,75,30.40,10.0,Calm,Calm,-,N/A,,Clear,0,2012-12-14 00:54:00
8:15 PM,28.4,23.0,80,30.40,10.0,Calm,Calm,-,N/A,,Clear,0,2012-12-14 01:15:00
8:36 PM,28.4,23.0,80,30.40,10.0,Calm,Calm,-,N/A,,Clear,0,2012-12-14 01:36:00
8:57 PM,28.4,23.0,80,30.40,10.0,Calm,Calm,-,N/A,,Clear,0,2012-12-14 01:57:00
10:24 PM,26.6,23.0,86,30.38,10.0,Calm,Calm,-,N/A,,Clear,0,2012-12-14 03:24:00
10:45 PM,26.6,23.0,86,30.38,10.0,Calm,Calm,-,N/A,,Clear,0,2012-12-14 03:45:00
11:06 PM,26.6,23.0,86,30.38,10.0,Calm,Calm,-,N/A,,Clear,0,2012-12-14 04:06:00
11:48 PM,26.6,23.0,86,30.37,10.0,Calm,Calm,-,N/A,,Clear,0,2012-12-14 04:48:00